�������l�o���
Date,Time,MP-1(��Sv/h),MP-2(��Sv/h),MP-3(��Sv/h),MP-4(��Sv/h),MP-5(��Sv/h),MP-6(��Sv/h),MP-7(��Sv/h),����,����(m/s),���J
2021/06/19,00:00,0.170,0.158,0.255,0.248,0.237,0.135,0.082,��,2.4,��
2021/06/19,00:10,0.169,0.158,0.254,0.247,0.238,0.135,0.084,��,1.6,��
2021/06/19,00:20,0.171,0.157,0.255,0.246,0.238,0.134,0.083,��,2.2,��
2021/06/19,00:30,0.169,0.159,0.254,0.246,0.238,0.135,0.083,��쓌,1.1,��
2021/06/19,00:40,0.171,0.158,0.255,0.247,0.239,0.134,0.083,��쓌,1.2,��
2021/06/19,00:50,0.169,0.157,0.255,0.246,0.237,0.135,0.083,��,1.9,��
2021/06/19,01:00,0.171,0.157,0.254,0.247,0.240,0.134,0.084,��,1.9,��
2021/06/19,01:10,0.169,0.158,0.254,0.247,0.237,0.134,0.082,��,2.1,��
2021/06/19,01:20,0.171,0.157,0.254,0.246,0.239,0.134,0.084,��쓌,2.7,��
2021/06/19,01:30,0.170,0.157,0.254,0.246,0.237,0.135,0.083,��쓌,2.8,��
2021/06/19,01:40,0.170,0.158,0.256,0.247,0.241,0.134,0.084,��쓌,2.6,��
2021/06/19,01:50,0.171,0.158,0.254,0.247,0.238,0.135,0.083,��쓌,1.8,��
2021/06/19,02:00,0.170,0.158,0.256,0.247,0.239,0.134,0.084,�쓌,1.8,��
2021/06/19,02:10,0.171,0.158,0.254,0.247,0.238,0.135,0.084,��쓌,2.3,��
2021/06/19,02:20,0.170,0.158,0.256,0.248,0.238,0.135,0.083,��쓌,2.5,��
2021/06/19,02:30,0.171,0.158,0.255,0.246,0.238,0.134,0.083,��,2.0,��
2021/06/19,02:40,0.170,0.159,0.255,0.248,0.237,0.135,0.084,��쓌,2.3,��
2021/06/19,02:50,0.171,0.158,0.253,0.246,0.241,0.135,0.083,��,1.7,��
2021/06/19,03:00,0.170,0.158,0.255,0.247,0.237,0.135,0.085,��쓌,2.8,��
2021/06/19,03:10,0.170,0.158,0.254,0.246,0.239,0.134,0.084,��쓌,3.6,��
2021/06/19,03:20,0.170,0.158,0.255,0.248,0.237,0.135,0.084,��쓌,4.2,�L
2021/06/19,03:30,0.170,0.157,0.255,0.247,0.239,0.134,0.084,��,4.6,�L
2021/06/19,03:40,0.170,0.158,0.256,0.247,0.237,0.134,0.084,��,5.2,��
2021/06/19,03:50,0.170,0.158,0.254,0.246,0.239,0.134,0.084,��쓌,4.3,��
2021/06/19,04:00,0.170,0.158,0.256,0.247,0.239,0.135,0.083,��쓌,3.9,��
2021/06/19,04:10,0.169,0.158,0.254,0.246,0.237,0.135,0.083,��쓌,3.7,��
2021/06/19,04:20,0.170,0.157,0.255,0.247,0.240,0.134,0.084,��쓌,3.6,��
2021/06/19,04:30,0.170,0.157,0.254,0.247,0.236,0.135,0.085,��,3.6,�L
2021/06/19,04:40,0.171,0.158,0.257,0.249,0.241,0.134,0.085,��,3.2,�L
2021/06/19,04:50,0.170,0.158,0.255,0.248,0.238,0.136,0.084,��,2.3,�L
2021/06/19,05:00,0.171,0.158,0.257,0.247,0.241,0.136,0.085,��,1.9,�L
2021/06/19,05:10,0.172,0.159,0.255,0.249,0.239,0.138,0.085,��쓌,2.1,�L
2021/06/19,05:20,0.171,0.159,0.257,0.247,0.240,0.136,0.085,��,2.0,�L
2021/06/19,05:30,0.172,0.160,0.255,0.248,0.239,0.137,0.085,��,1.7,�L
2021/06/19,05:40,0.171,0.159,0.258,0.248,0.240,0.136,0.086,��,1.3,�L
2021/06/19,05:50,0.173,0.160,0.255,0.248,0.241,0.136,0.085,��,1.8,��
2021/06/19,06:00,0.171,0.158,0.256,0.247,0.238,0.137,0.086,��,1.9,��
2021/06/19,06:10,0.172,0.159,0.256,0.248,0.241,0.135,0.085,��,1.5,�L
2021/06/19,06:20,0.173,0.159,0.256,0.247,0.239,0.137,0.084,��쓌,1.9,�L
2021/06/19,06:30,0.171,0.159,0.256,0.248,0.240,0.136,0.085,��,2.6,�L
2021/06/19,06:40,0.172,0.159,0.256,0.247,0.239,0.136,0.085,��쓌,3.0,�L
2021/06/19,06:50,0.171,0.158,0.257,0.247,0.237,0.136,0.085,��쓌,3.4,�L
2021/06/19,07:00,0.172,0.160,0.255,0.248,0.241,0.136,0.086,��쓌,2.9,�L
2021/06/19,07:10,0.172,0.159,0.258,0.247,0.240,0.138,0.086,��,2.3,�L
2021/06/19,07:20,0.172,0.160,0.255,0.251,0.241,0.136,0.087,��쓌,2.1,�L
2021/06/19,07:30,0.172,0.160,0.257,0.249,0.242,0.138,0.086,��,2.1,�L
2021/06/19,07:40,0.170,0.160,0.257,0.249,0.239,0.138,0.087,��,1.7,�L
2021/06/19,07:50,0.173,0.159,0.257,0.249,0.242,0.137,0.086,��,1.7,�L
2021/06/19,08:00,0.172,0.160,0.258,0.248,0.240,0.137,0.087,��,1.6,�L
2021/06/19,08:10,0.173,0.160,0.256,0.251,0.241,0.137,0.087,��,2.0,�L
2021/06/19,08:20,0.174,0.161,0.258,0.247,0.241,0.138,0.088,��,2.2,�L
2021/06/19,08:30,0.173,0.161,0.256,0.250,0.240,0.139,0.089,��,2.3,�L
2021/06/19,08:40,0.175,0.161,0.259,0.249,0.242,0.138,0.088,��,3.6,�L
2021/06/19,08:50,0.174,0.162,0.257,0.248,0.239,0.139,0.088,��쓌,3.9,�L
2021/06/19,09:00,0.173,0.160,0.256,0.248,0.241,0.139,0.088,��쓌,5.0,�L
2021/06/19,09:10,0.173,0.162,0.256,0.246,0.241,0.138,0.088,��쓌,6.0,�L
2021/06/19,09:20,0.172,0.159,0.253,0.248,0.238,0.139,0.087,��,5.4,�L
2021/06/19,09:30,0.174,0.161,0.256,0.246,0.240,0.137,0.088,��,5.9,�L
2021/06/19,09:40,0.172,0.160,0.255,0.248,0.238,0.139,0.087,��쓌,6.2,�L
2021/06/19,09:50,0.173,0.161,0.254,0.246,0.241,0.138,0.087,��,5.8,�L
2021/06/19,10:00,0.171,0.160,0.254,0.246,0.239,0.138,0.087,��,6.2,�L
2021/06/19,10:10,0.171,0.160,0.253,0.246,0.237,0.139,0.087,��,6.1,�L
2021/06/19,10:20,0.172,0.160,0.253,0.245,0.240,0.137,0.087,��,5.7,�L
2021/06/19,10:30,0.170,0.158,0.253,0.247,0.237,0.137,0.086,��,5.4,�L
2021/06/19,10:40,0.172,0.159,0.253,0.243,0.239,0.136,0.086,��,5.2,�L
2021/06/19,10:50,0.171,0.158,0.252,0.244,0.239,0.135,0.085,��,6.3,�L
2021/06/19,11:00,0.169,0.156,0.248,0.244,0.235,0.136,0.084,��,6.7,��
2021/06/19,11:10,0.170,0.158,0.252,0.242,0.236,0.135,0.085,��,6.9,��
2021/06/19,11:20,0.169,0.158,0.252,0.242,0.236,0.134,0.085,��,6.4,�L
2021/06/19,11:30,0.168,0.156,0.249,0.244,0.236,0.134,0.084,��,5.9,�L
2021/06/19,11:40,0.170,0.158,0.251,0.242,0.237,0.135,0.084,��,5.7,�L
2021/06/19,11:50,0.169,0.156,0.251,0.243,0.237,0.134,0.084,��쓌,5.4,�L
2021/06/19,12:00,0.168,0.156,0.250,0.244,0.235,0.135,0.084,��쓌,5.5,�L
2021/06/19,12:10,0.170,0.157,0.252,0.242,0.237,0.133,0.085,��,6.8,�L
2021/06/19,12:20,0.169,0.156,0.249,0.243,0.235,0.136,0.084,��,6.2,�L
2021/06/19,12:30,0.170,0.158,0.253,0.242,0.235,0.135,0.085,��,6.9,�L
2021/06/19,12:40,0.170,0.156,0.250,0.244,0.237,0.135,0.084,��,6.1,�L
2021/06/19,12:50,0.170,0.157,0.251,0.243,0.235,0.135,0.084,��,6.4,�L
2021/06/19,13:00,0.171,0.157,0.252,0.243,0.238,0.135,0.085,��,6.5,�L
2021/06/19,13:10,0.170,0.158,0.250,0.244,0.236,0.137,0.085,��,4.7,�L
2021/06/19,13:20,0.172,0.157,0.252,0.242,0.238,0.135,0.086,��,4.9,�L
2021/06/19,13:30,0.169,0.158,0.249,0.244,0.237,0.136,0.086,��,5.3,�L
2021/06/19,13:40,0.170,0.158,0.251,0.241,0.236,0.136,0.086,��,6.6,�L
2021/06/19,13:50,0.170,0.158,0.248,0.244,0.238,0.135,0.086,��,8.3,�L
2021/06/19,14:00,0.169,0.159,0.250,0.241,0.234,0.137,0.085,��,7.4,�L
2021/06/19,14:10,0.171,0.157,0.250,0.242,0.238,0.135,0.085,��,7.2,�L
2021/06/19,14:20,0.169,0.156,0.248,0.242,0.235,0.136,0.085,��,7.1,�L
2021/06/19,14:30,0.169,0.158,0.248,0.240,0.236,0.136,0.086,��,6.0,�L
2021/06/19,14:40,0.168,0.156,0.247,0.239,0.235,0.135,0.086,��쓌,6.6,�L
2021/06/19,14:50,0.169,0.157,0.248,0.238,0.234,0.136,0.085,��쓌,6.9,�L
2021/06/19,15:00,0.169,0.156,0.246,0.241,0.235,0.135,0.085,��쓌,7.1,�L
2021/06/19,15:10,0.168,0.157,0.247,0.237,0.232,0.135,0.085,��,7.6,�L
2021/06/19,15:20,0.168,0.155,0.245,0.240,0.236,0.133,0.085,��,7.6,�L
2021/06/19,15:30,0.168,0.156,0.247,0.237,0.233,0.135,0.083,��,6.5,�L
2021/06/19,15:40,0.169,0.155,0.244,0.239,0.236,0.134,0.085,��,5.7,�L
2021/06/19,15:50,0.167,0.155,0.246,0.238,0.233,0.133,0.084,��,5.8,�L
2021/06/19,16:00,0.168,0.155,0.244,0.238,0.234,0.134,0.084,��쓌,6.5,�L
2021/06/19,16:10,0.166,0.155,0.245,0.239,0.234,0.133,0.084,��쓌,7.0,�L
2021/06/19,16:20,0.166,0.154,0.244,0.236,0.233,0.134,0.083,��쓌,6.4,�L
2021/06/19,16:30,0.167,0.154,0.245,0.237,0.235,0.132,0.084,��,6.9,�L
2021/06/19,16:40,0.166,0.153,0.244,0.235,0.231,0.133,0.083,�쓌,5.6,�L
2021/06/19,16:50,0.166,0.155,0.243,0.236,0.234,0.132,0.083,��쓌,5.8,�L
2021/06/19,17:00,0.166,0.154,0.243,0.234,0.231,0.133,0.084,��쓌,5.9,�L
2021/06/19,17:10,0.167,0.154,0.242,0.237,0.233,0.132,0.083,��,6.6,�L
2021/06/19,17:20,0.165,0.154,0.243,0.232,0.232,0.132,0.084,��쓌,6.4,�L
2021/06/19,17:30,0.167,0.153,0.242,0.234,0.233,0.133,0.084,��,3.3,�L
2021/06/19,17:40,0.165,0.153,0.242,0.233,0.231,0.132,0.084,��,5.6,�L
2021/06/19,17:50,0.166,0.153,0.242,0.234,0.234,0.133,0.083,��,6.1,�L
2021/06/19,18:00,0.165,0.152,0.242,0.234,0.231,0.132,0.084,��,5.0,�L
2021/06/19,18:10,0.164,0.153,0.241,0.234,0.232,0.132,0.083,��,6.5,�L
2021/06/19,18:20,0.164,0.151,0.241,0.234,0.232,0.131,0.083,��,6.4,�L
2021/06/19,18:30,0.163,0.152,0.240,0.234,0.231,0.131,0.082,��,7.8,�L
2021/06/19,18:40,0.165,0.152,0.242,0.234,0.233,0.130,0.082,��,7.6,��
2021/06/19,18:50,0.162,0.151,0.241,0.232,0.231,0.131,0.082,��쓌,7.0,��
2021/06/19,19:00,0.165,0.152,0.241,0.233,0.231,0.130,0.081,��쓌,6.8,��
2021/06/19,19:10,0.163,0.151,0.239,0.231,0.230,0.128,0.081,��,7.1,�L
2021/06/19,19:20,0.164,0.151,0.240,0.233,0.232,0.130,0.081,��,6.2,�L
2021/06/19,19:30,0.162,0.150,0.238,0.231,0.229,0.128,0.081,��,5.9,��
2021/06/19,19:40,0.164,0.151,0.241,0.233,0.232,0.130,0.081,��,7.1,��
2021/06/19,19:50,0.163,0.149,0.238,0.233,0.230,0.129,0.081,��,7.1,��
2021/06/19,20:00,0.162,0.151,0.241,0.234,0.231,0.129,0.081,��,7.0,��
2021/06/19,20:10,0.163,0.150,0.238,0.232,0.233,0.129,0.081,��쐼,7.6,��
2021/06/19,20:20,0.162,0.151,0.241,0.233,0.230,0.129,0.080,��쐼,8.1,��
2021/06/19,20:30,0.164,0.150,0.237,0.231,0.232,0.130,0.081,��쐼,5.7,��
2021/06/19,20:40,0.162,0.149,0.240,0.232,0.228,0.128,0.080,��,5.5,��
2021/06/19,20:50,0.163,0.150,0.238,0.231,0.232,0.129,0.080,��,6.6,��
2021/06/19,21:00,0.162,0.151,0.240,0.232,0.230,0.129,0.080,��,4.3,��
2021/06/19,21:10,0.163,0.149,0.239,0.231,0.231,0.129,0.080,��,4.2,��
2021/06/19,21:20,0.162,0.150,0.240,0.231,0.229,0.128,0.080,��,6.1,��
2021/06/19,21:30,0.162,0.150,0.239,0.233,0.232,0.128,0.080,��,8.7,��
2021/06/19,21:40,0.163,0.150,0.239,0.230,0.231,0.129,0.080,��,8.3,��
2021/06/19,21:50,0.161,0.151,0.239,0.232,0.230,0.129,0.080,��,8.3,��
2021/06/19,22:00,0.162,0.150,0.239,0.231,0.230,0.129,0.080,��,9.5,��
2021/06/19,22:10,0.162,0.150,0.240,0.232,0.229,0.129,0.080,��,8.8,��
2021/06/19,22:20,0.162,0.151,0.239,0.232,0.232,0.128,0.080,��,10.1,��
2021/06/19,22:30,0.162,0.150,0.240,0.233,0.229,0.129,0.080,��,9.5,��
2021/06/19,22:40,0.162,0.150,0.239,0.232,0.231,0.129,0.080,��,9.0,�L
2021/06/19,22:50,0.163,0.150,0.240,0.232,0.229,0.129,0.080,��,10.1,��
2021/06/19,23:00,0.162,0.151,0.238,0.232,0.231,0.129,0.080,��,9.8,��
2021/06/19,23:10,0.163,0.150,0.241,0.231,0.231,0.130,0.081,��,9.3,��
2021/06/19,23:20,0.161,0.150,0.238,0.233,0.229,0.128,0.080,��,9.8,��
2021/06/19,23:30,0.163,0.151,0.240,0.232,0.231,0.129,0.080,��쐼,9.5,��
2021/06/19,23:40,0.163,0.150,0.240,0.232,0.229,0.130,0.080,��쐼,8.1,��
2021/06/19,23:50,0.162,0.150,0.241,0.229,0.232,0.129,0.080,��,6.7,��
